TimeCST,TemperatureF,Dew PointF,Humidity,Sea Level PressureIn,VisibilityMPH,Wind Direction,Wind SpeedMPH,Gust SpeedMPH,PrecipitationIn,Events,Conditions,WindDirDegrees,DateUTC
12:56 AM,35.1,28.0,76,30.37,10.0,North,6.9,-,N/A,,Clear,350,2012-12-30 06:56:00
1:56 AM,34.0,28.0,79,30.39,10.0,North,6.9,-,N/A,,Clear,350,2012-12-30 07:56:00
2:56 AM,32.0,27.0,82,30.40,10.0,North,4.6,-,N/A,,Clear,350,2012-12-30 08:56:00
3:56 AM,30.0,25.0,82,30.41,10.0,North,4.6,-,N/A,,Clear,350,2012-12-30 09:56:00
4:56 AM,30.0,25.0,82,30.42,10.0,North,5.8,-,N/A,,Clear,350,2012-12-30 10:56:00
5:56 AM,30.0,24.1,79,30.45,10.0,North,6.9,-,N/A,,Clear,360,2012-12-30 11:56:00
6:56 AM,28.0,24.1,85,30.47,10.0,Variable,5.8,-,N/A,,Clear,0,2012-12-30 12:56:00
7:56 AM,33.1,26.1,75,30.49,10.0,North,4.6,-,N/A,,Clear,10,2012-12-30 13:56:00
8:56 AM,37.0,26.1,65,30.49,10.0,NNE,11.5,-,N/A,,Partly Cloudy,30,2012-12-30 14:56:00
9:56 AM,41.0,26.1,55,30.50,10.0,NNE,11.5,-,N/A,,Partly Cloudy,20,2012-12-30 15:56:00
10:56 AM,43.0,26.1,51,30.48,10.0,NNE,6.9,-,N/A,,Partly Cloudy,30,2012-12-30 16:56:00
11:56 AM,46.9,27.0,46,30.44,10.0,NNE,6.9,-,N/A,,Scattered Clouds,20,2012-12-30 17:56:00
12:56 PM,50.0,27.0,41,30.40,10.0,North,9.2,-,N/A,,Scattered Clouds,10,2012-12-30 18:56:00
1:56 PM,52.0,28.0,40,30.38,10.0,NNE,10.4,-,N/A,,Mostly Cloudy,20,2012-12-30 19:56:00
2:56 PM,53.1,27.0,37,30.37,10.0,NNE,6.9,-,N/A,,Mostly Cloudy,30,2012-12-30 20:56:00
3:56 PM,53.1,27.0,37,30.36,10.0,NE,9.2,-,N/A,,Mostly Cloudy,50,2012-12-30 21:56:00
4:56 PM,48.0,30.0,50,30.37,10.0,NNE,4.6,-,N/A,,Mostly Cloudy,20,2012-12-30 22:56:00
5:30 PM,46.4,30.2,53,30.36,10.0,Calm,Calm,-,N/A,,Mostly Cloudy,0,2012-12-30 23:30:00
5:56 PM,39.9,34.0,79,30.38,10.0,North,3.5,-,N/A,,Clear,360,2012-12-30 23:56:00
6:56 PM,39.9,33.1,77,30.39,10.0,North,3.5,-,N/A,,Clear,360,2012-12-31 00:56:00
7:56 PM,39.0,30.9,73,30.41,10.0,NNW,4.6,-,N/A,,Clear,330,2012-12-31 01:56:00
8:56 PM,34.0,32.0,92,30.41,10.0,Calm,Calm,-,N/A,,Clear,0,2012-12-31 02:56:00
9:56 PM,34.0,32.0,92,30.41,10.0,North,3.5,-,N/A,,Clear,360,2012-12-31 03:56:00
10:56 PM,34.0,30.9,89,30.39,10.0,Calm,Calm,-,N/A,,Clear,0,2012-12-31 04:56:00
11:56 PM,36.0,30.9,82,30.36,10.0,North,5.8,-,N/A,,Clear,10,2012-12-31 05:56:00